Tracking 35048 objects as of 19-Aug-2026
HD Live streaming from Space Station
objects crossing your sky now

OBJECT D

Track OBJECT D now!
10-day predictions


NORAD ID: 51949
Int'l Code: 2022-023D
Launch date: March 5, 2022
Source: People's Republic of China (PRC)
Launch site: Xichang Space Center, China (XSC)
Your satellite tracking list
Your tracking list is empty




NASA's NSSDC Master Catalog

Two Line Element Set (TLE):
1 51949U 22023D   26231.30073117  .00005654  00000-0  23080-3 0  9999
2 51949  63.4458  57.2113 0132391 354.0053   5.9467 15.17874688247298
Source of the keplerian elements: AFSPC